Regional Weather Roundup
Issued by NWS State College, PA

Home | Current Version | Previous Version | Text Only | Print | Product List | Glossary On
Versions: 1 2 3 4 5 6 7 8 9 10 11 12 13 14 15 16 17 18 19 20 21 22 23 24 25 26 27 28 29 30 31 32 33 34 35 36 37 38 39 40 41 42 43 44 45 46 47 48 49 50
000
ASUS41 KCTP 221410
RWRCTP

REGIONAL WEATHER ROUNDUP
NATIONAL WEATHER SERVICE STATE COLLEGE PA
1000 AM EDT MON SEP 22 2014

Note: "fair" indicates few or no clouds below 12,000 feet with no
significant weather and/or obstructions to visibility.

* = STATION THAT DOES NOT REPORT PRECIPITATION /E.G. RAIN...SNOW...ETC/
    THUNDER OR FOG.

PAZ002>004-007>009-013>016-020>023-029>032-221500-
WESTERN PENNSYLVANIA

CITY           SKY/WX    TMP DP  RH WIND       PRES   REMARKS
ERIE           CLOUDY    54  39  57 N12G23    30.09R
MEADVILLE      CLOUDY    49  46  90 W6        30.09R
FRANKLIN*      CLOUDY    48  43  81 NW8       30.10R
NEW CASTLE     NOT AVBL
BEAVER COUNTY  CLOUDY    55  45  67 NW12G18   30.11R
BUTLER*        CLOUDY    54  45  71 NW8       30.12R
PITTSBURGH INT MOSUNNY   55  43  63 W14       30.10R
PITTSBURGH     PTSUNNY   55  40  56 W8        30.10R
INDIANA*       PTSUNNY   52  48  87 VRB7G13   30.13R
LATROBE        PTSUNNY   54  48  82 W12       30.11R
WASHINGTON CO* PTSUNNY   54  43  66 NW8       30.13R
$$

PAZ004>006-010>012-017>019-024>028-033>037-041-042-045-046-049>053-221500-
CENTRAL PENNSYLVANIA

CITY           SKY/WX    TMP DP  RH WIND       PRES   REMARKS
BRADFORD       CLOUDY    47  43  86 NW12      30.04R
DUBOIS         CLOUDY    49  41  74 NW13G20   30.06R
CLEARFIELD     CLOUDY    50  44  80 NW13      30.05R
JOHNSTOWN      LGT RAIN  47  44  90 NW18G24   30.07R FOG
ALTOONA        CLOUDY    52  46  80 NW15      30.06R
STATE COLLEGE  PTSUNNY   55  45  67 NW6       30.03R
WILLIAMSPORT   CLOUDY    58  47  66 NW10G18   29.98R
SELINSGROVE    MOSUNNY   62  48  60 NW8       29.99R
FT INDIANTOWN  PTSUNNY   60  47  61 VRB7G25   29.98R
CAPITAL CITY   MOSUNNY   62  44  51 NW16      30.00R
HARRISBURG     MOSUNNY   63  45  51 NW21G31   29.98R
YORK           PTSUNNY   62  47  57 NW14G28   30.00R
$$

PAZ038>040-043-044-047-048-054-055-060>062-067>071-221500-
EASTERN PENNSYLVANIA

CITY           SKY/WX    TMP DP  RH WIND       PRES   REMARKS
SCRANTON       CLOUDY    57  48  72 NW13      29.96R
MOUNT POCONO   PTSUNNY   55  47  74 NW15G24   29.93R
ALLENTOWN      PTSUNNY   63  49  60 NW16      29.92R
QUAKERTOWN*    MOSUNNY   64  50  59 NW10G18   29.93R
READING        PTSUNNY   65  48  54 NW21G26   29.95R
LANCASTER      MOSUNNY   63  47  55 NW18G24   29.97R
COATESVILLE    SUNNY     63  50  63 NW22      29.96R
POTTSTOWN      PTSUNNY   64  50  60 NW13G22   29.95R
BLUE BELL      SUNNY     68  50  52 NW6G18    29.91R
DOYLESTOWN     SUNNY     65  50  58 NW13G22   29.91R
WILLOW GROVE   NOT AVBL
NORTH PHILA    SUNNY     69  48  47 W13G22    29.93R
PHILADELPHIA   MOSUNNY   67  49  52 W16G24    29.93R
$$


USA.gov is the U.S. government's official web portal to all federal, state and local government web resources and services.